Wind_Speed
33 32 31 30 29 29 28 28 27 27 27 27 27 26 26 25 25 25 26 26 26 26 27 27 27 27 27 28 28 28 28 29 29 29 29 29 30 30 31 32 33 34 35
35 34 34 33 32 31 30 30 29 29 29 29 28 28 27 27 27 27 27 27 27 28 28 28 28 28 29 29 29 30 30 30 30 30 30 30 30 32 32 33 34 35 36
37 36 36 35 34 33 32 32 32 31 30 30 30 29 29 29 28 28 28 28 29 29 29 29 29 29 30 30 30 30 31 31 31 32 32 32 32 33 33 34 35 36 37
39 38 38 37 36 36 35 34 33 33 32 31 31 30 30 30 30 30 30 30 30 30 30 30 30 30 31 31 31 32 32 32 32 33 33 34 34 34 34 35 36 37 38
41 40 39 38 38 37 37 36 35 35 34 33 32 32 32 31 31 31 31 31 31 32 32 32 32 32 32 32 33 33 33 34 34 34 35 35 36 36 37 37 37 39 39
42 41 40 39 38 38 37 37 37 36 36 35 34 34 33 33 33 32 32 32 33 33 33 33 33 33 33 33 34 34 35 35 35 36 36 37 37 38 39 39 39 40 40
42 41 41 40 39 38 38 38 38 37 37 36 36 35 34 34 33 34 33 33 34 34 34 34 34 34 35 35 35 36 36 36 37 37 38 39 40 41 41 42 41 41 41
42 41 41 40 40 39 39 38 38 38 38 37 37 36 36 35 35 35 35 34 34 35 35 35 36 36 36 36 36 36 37 37 38 38 39 40 41 42 43 43 43 43 43
41 41 42 41 40 40 39 39 39 39 39 38 37 37 37 36 36 36 36 36 36 36 36 37 37 37 37 37 37 37 38 38 39 40 41 42 43 43 44 45 45 46 45
41 41 42 42 41 40 40 39 39 39 39 39 38 38 38 37 38 38 37 37 37 38 38 38 38 38 38 38 38 38 39 39 40 41 42 43 44 44 46 46 47 48 48
41 41 41 42 41 40 40 40 40 40 40 40 40 39 39 39 39 39 38 38 39 39 39 39 39 39 39 39 39 39 40 40 41 42 43 44 45 46 47 47 48 49 49
40 41 41 41 41 41 41 40 41 41 41 41 41 41 41 41 40 40 40 40 39 40 40 41 40 39 40 40 40 40 41 41 42 43 44 45 46 47 47 48 48 49 50
40 41 41 42 42 42 42 42 42 42 42 42 43 43 42 42 41 41 41 41 41 41 41 41 41 40 40 40 41 41 42 42 43 44 45 46 47 48 48 48 49 50 51
40 41 42 43 43 44 44 44 43 43 43 44 44 44 44 44 43 43 43 42 42 42 42 41 41 41 41 41 42 42 43 43 44 45 46 47 48 48 48 49 50 51 52
41 41 41 42 42 43 44 44 44 44 44 45 45 45 45 44 44 44 44 44 43 43 42 42 42 42 43 43 43 43 44 44 45 46 46 48 49 49 50 50 51 52 53
41 41 42 42 42 43 43 44 44 44 45 45 45 45 46 46 45 45 46 45 44 44 44 43 44 44 43 43 44 45 45 46 46 47 47 48 49 50 50 51 52 52 53
42 43 42 42 42 43 44 44 44 45 46 46 46 46 46 46 46 46 46 46 45 45 45 45 44 44 43 44 45 45 46 47 47 48 48 49 49 50 50 51 52 53 54
44 44 44 44 44 44 45 45 45 45 46 46 46 46 46 45 45 45 45 45 45 45 45 45 44 44 44 44 45 46 47 47 48 48 49 49 49 50 50 51 53 54 55
46 45 44 44 45 45 45 46 46 45 45 45 45 45 45 45 45 45 44 44 45 45 45 45 45 44 44 44 45 46 47 47 48 49 49 50 50 50 51 52 54 54 56
48 47 46 46 46 45 46 46 45 45 45 45 45 45 45 44 44 45 45 45 45 45 46 45 45 45 45 45 46 47 47 48 48 49 49 49 50 51 52 53 54 55 57
46 46 46 47 46 45 45 45 45 45 45 45 45 45 44 44 45 45 45 45 45 45 45 45 45 46 46 46 46 47 48 48 48 48 49 49 50 51 52 53 54 56 57
45 45 45 45 45 46 46 46 46 46 46 46 46 46 45 45 46 46 45 46 46 45 45 45 45 46 46 46 47 47 47 48 48 49 49 50 51 51 52 53 55 56 57
45 46 45 45 45 46 47 47 46 46 46 46 46 46 46 46 46 46 46 46 46 46 46 46 46 46 46 46 47 46 47 48 48 48 49 50 50 51 52 54 55 56 57
45 45 45 45 46 46 46 47 47 47 47 47 46 46 47 47 47 47 47 46 46 46 46 46 46 46 46 45 45 46 47 47 48 48 49 50 51 51 52 53 55 56 57
44 45 45 45 46 46 45 46 46 47 47 47 48 47 47 47 47 47 47 46 46 46 46 46 46 46 45 44 44 45 45 46 47 48 48 49 50 50 52 53 55 56 56
44 44 45 45 45 45 44 44 45 46 46 46 46 46 46 46 46 46 46 45 45 45 45 45 45 45 45 44 44 45 46 46 47 48 49 49 50 51 52 53 55 56 56
Wind_Direction
244 246 248 250 252 253 255 256 257 258 261 263 265 268 271 275 277 279 281 282 284 286 287 288 289 291 291 292 292 293 295 296 297 297 298 299 300 302 303 304 304 304 305
245 247 248 250 252 254 255 257 258 259 261 263 266 268 270 273 275 277 279 281 283 284 286 287 287 289 290 290 291 292 293 294 295 296 296 296 298 300 302 303 304 304 304
245 247 249 251 253 255 256 257 258 260 261 262 265 267 270 273 274 276 278 280 282 283 284 285 286 287 288 289 289 290 292 293 294 294 295 296 296 298 300 301 302 302 302
246 248 249 251 253 255 256 256 257 259 260 261 264 266 270 272 273 275 277 279 281 282 283 283 284 286 287 287 288 289 291 292 293 293 294 295 296 297 299 300 300 301 301
246 248 250 251 252 254 255 256 256 257 259 261 262 265 268 270 273 275 277 278 280 281 281 282 283 285 286 287 287 288 290 291 292 292 293 294 296 297 298 299 300 300 301
246 247 249 250 251 252 254 255 256 257 258 260 262 264 267 269 272 275 276 278 279 280 280 281 282 283 285 286 286 287 289 290 291 292 293 294 295 296 298 299 299 300 300
246 247 249 250 250 252 253 254 256 257 258 260 262 264 266 269 271 274 275 276 278 279 279 280 281 282 284 285 286 287 288 289 291 292 293 294 295 296 297 298 298 299 300
247 249 250 250 251 252 253 254 255 257 258 260 261 264 266 268 270 272 273 275 276 277 278 279 280 282 283 284 285 286 287 289 290 291 292 294 294 295 297 298 298 299 299
247 248 249 249 250 252 252 253 255 257 258 260 261 263 266 267 268 270 272 273 274 275 277 278 279 281 283 284 284 285 286 288 289 290 292 293 294 295 296 297 298 299 299
246 247 248 249 250 251 252 253 255 256 258 259 261 262 264 266 267 269 270 272 273 274 276 278 279 280 282 283 284 285 286 287 289 291 292 293 294 296 296 297 298 299 300
247 248 248 248 250 250 251 252 254 256 257 259 260 262 263 265 267 269 270 271 272 273 275 278 278 279 281 283 284 285 286 288 290 291 292 293 295 296 297 297 298 299 300
248 248 249 249 250 252 252 252 253 254 256 258 260 261 263 265 267 269 270 271 272 274 275 277 277 279 280 282 283 284 286 288 290 291 293 294 295 296 297 298 298 299 300
248 248 248 249 249 251 252 253 253 254 256 257 258 260 262 264 266 268 270 271 272 273 275 276 277 279 280 282 283 284 286 288 290 292 293 294 295 296 297 298 299 300 301
248 247 247 248 248 249 251 252 253 254 256 257 259 260 262 263 265 267 268 270 271 272 274 275 277 278 280 281 282 284 286 288 290 291 293 294 295 296 297 298 299 301 302
247 247 247 248 249 250 250 251 253 254 256 258 259 261 262 263 265 266 267 269 271 272 274 275 277 278 279 281 283 284 286 288 290 291 293 294 296 296 297 298 300 301 302
246 247 248 250 251 251 251 252 253 255 257 259 260 260 261 262 264 266 267 268 271 272 273 275 276 278 279 281 283 285 286 288 290 292 293 294 295 297 298 299 301 302 303
247 249 250 250 250 251 251 252 254 255 257 258 259 259 260 261 262 264 266 268 269 271 273 274 275 277 279 281 283 285 287 289 291 292 293 294 295 297 299 300 301 302 303
248 250 251 250 250 251 252 252 253 255 257 257 258 259 260 261 262 264 266 267 269 271 272 273 275 277 279 281 283 285 287 289 290 292 294 295 296 297 298 300 301 303 304
251 251 252 253 253 252 253 253 254 255 256 257 257 258 259 260 262 263 265 267 268 270 271 273 275 277 279 281 283 285 287 288 290 292 294 295 296 298 299 300 302 304 305
252 253 253 253 254 253 253 254 254 255 256 257 257 257 259 260 262 263 264 266 268 270 271 272 274 276 278 280 282 284 286 288 289 291 293 295 296 298 299 301 302 304 306
253 253 253 254 253 252 252 253 254 254 255 256 256 257 258 260 261 263 264 266 268 269 271 272 273 275 277 280 282 284 285 287 289 291 293 295 297 298 300 301 303 305 306
252 253 253 253 253 253 253 253 254 254 254 256 257 257 259 260 261 262 264 265 268 269 271 272 274 275 277 279 281 283 285 288 290 292 294 295 297 299 301 302 304 306 307
254 254 254 253 253 253 253 253 254 254 255 256 257 258 259 260 262 263 265 267 268 270 271 272 273 275 277 279 281 284 286 288 290 292 294 296 298 300 301 303 305 307 308
254 255 254 253 253 253 254 254 254 255 257 257 257 258 260 260 262 264 265 266 268 270 271 273 274 275 277 280 282 285 287 288 291 293 295 296 298 300 302 304 306 307 308
255 256 255 255 254 254 256 256 256 257 257 257 258 259 259 261 262 263 264 265 267 269 271 273 274 276 278 281 283 286 287 289 292 293 295 297 299 301 302 304 306 307 308
255 255 256 255 254 255 255 255 256 257 257 257 259 259 259 260 261 263 263 264 266 268 270 272 274 277 278 281 284 287 288 290 292 294 296 297 299 301 303 305 306 307 308
Height
5793 5795 5797 5799 5801 5803 5804 5805 5806 5806 5807 5807 5808 5808 5808 5807 5807 5806 5805 5804 5802 5801 5799 5797 5795 5793 5791 5789 5787 5785 5782 5779 5777 5774 5771 5768 5764 5761 5757 5753 5750 5746 5741
5785 5787 5789 5791 5793 5795 5796 5797 5799 5799 5800 5801 5801 5801 5801 5801 5800 5799 5798 5797 5796 5794 5793 5791 5789 5787 5785 5782 5780 5778 5775 5773 5770 5767 5764 5762 5759 5754 5750 5746 5742 5738 5734
5776 5779 5781 5783 5785 5787 5789 5790 5791 5792 5792 5793 5793 5793 5793 5793 5793 5792 5791 5790 5788 5787 5785 5784 5782 5780 5778 5775 5773 5771 5768 5766 5763 5760 5757 5754 5752 5748 5744 5739 5735 5730 5726
5768 5770 5772 5775 5776 5778 5780 5781 5783 5784 5784 5785 5785 5786 5786 5786 5785 5784 5784 5782 5781 5780 5778 5776 5774 5772 5770 5768 5766 5763 5761 5758 5755 5752 5749 5746 5743 5740 5737 5733 5728 5723 5718
5758 5761 5763 5766 5768 5769 5771 5773 5774 5775 5776 5777 5777 5778 5778 5778 5777 5777 5776 5774 5773 5772 5770 5768 5766 5764 5762 5760 5758 5755 5753 5750 5747 5744 5741 5738 5734 5730 5727 5725 5720 5715 5710
5748 5751 5753 5756 5758 5760 5761 5763 5765 5766 5767 5768 5769 5769 5770 5769 5769 5768 5767 5766 5765 5764 5762 5760 5758 5756 5754 5752 5749 5747 5744 5742 5739 5736 5732 5729 5726 5722 5718 5715 5711 5707 5702
5738 5740 5743 5746 5748 5750 5752 5754 5756 5757 5758 5759 5760 5761 5761 5760 5760 5760 5759 5758 5757 5755 5753 5752 5750 5748 5746 5744 5741 5739 5736 5733 5730 5727 5723 5720 5716 5712 5708 5705 5701 5697 5693
5728 5731 5733 5736 5738 5740 5742 5744 5746 5748 5749 5750 5751 5751 5751 5751 5751 5751 5750 5749 5748 5746 5744 5743 5741 5739 5737 5735 5732 5730 5727 5724 5721 5718 5714 5710 5706 5702 5698 5694 5690 5687 5683
5718 5721 5723 5726 5728 5730 5732 5734 5736 5738 5739 5740 5741 5741 5742 5742 5742 5741 5740 5740 5738 5737 5735 5734 5732 5730 5728 5725 5723 5721 5718 5715 5711 5708 5705 5701 5697 5692 5688 5683 5679 5675 5671
5707 5710 5712 5715 5717 5720 5722 5723 5725 5727 5728 5729 5730 5731 5731 5732 5732 5731 5731 5730 5729 5727 5726 5724 5722 5720 5718 5716 5713 5711 5708 5705 5702 5698 5695 5691 5687 5682 5677 5673 5668 5663 5658
5696 5699 5702 5704 5707 5709 5711 5713 5714 5716 5717 5719 5720 5720 5721 5721 5721 5721 5721 5720 5719 5717 5716 5714 5712 5711 5708 5706 5703 5701 5698 5695 5692 5688 5684 5680 5676 5672 5667 5662 5657 5651 5646
5685 5688 5690 5693 5695 5698 5700 5702 5704 5705 5707 5708 5709 5710 5710 5710 5711 5711 5710 5709 5708 5707 5705 5704 5702 5700 5698 5696 5693 5691 5688 5685 5681 5678 5674 5670 5665 5661 5656 5651 5645 5640 5634
5673 5676 5679 5681 5684 5686 5689 5691 5693 5694 5695 5696 5698 5698 5699 5699 5700 5700 5699 5698 5697 5696 5694 5693 5692 5690 5687 5685 5683 5680 5677 5674 5670 5667 5663 5659 5654 5650 5644 5639 5634 5628 5622
5661 5664 5666 5669 5671 5674 5677 5679 5681 5682 5684 5685 5686 5687 5688 5688 5688 5688 5687 5687 5686 5685 5683 5682 5680 5678 5676 5674 5672 5669 5666 5663 5659 5656 5652 5647 5643 5638 5633 5627 5622 5616 5610
5649 5652 5655 5657 5659 5662 5664 5666 5668 5670 5671 5673 5674 5676 5676 5676 5677 5676 5676 5675 5674 5673 5672 5671 5669 5667 5665 5663 5661 5658 5655 5652 5648 5644 5640 5636 5631 5626 5620 5615 5609 5603 5597
5637 5640 5643 5646 5648 5650 5652 5654 5656 5658 5659 5660 5662 5663 5664 5664 5664 5664 5664 5663 5663 5662 5660 5659 5658 5656 5654 5652 5649 5647 5644 5641 5637 5633 5628 5624 5619 5614 5608 5602 5596 5590 5584
5624 5627 5630 5633 5636 5638 5639 5641 5643 5645 5646 5648 5649 5650 5651 5651 5652 5652 5651 5651 5650 5649 5648 5647 5646 5644 5643 5640 5638 5635 5632 5629 5625 5621 5616 5612 5607 5601 5596 5590 5584 5578 5571
5611 5615 5617 5620 5622 5624 5626 5628 5630 5632 5633 5635 5636 5637 5638 5638 5639 5639 5639 5639 5638 5637 5636 5635 5634 5632 5631 5628 5626 5623 5619 5616 5613 5608 5604 5600 5595 5589 5583 5578 5572 5565 5558
5598 5602 5605 5607 5609 5611 5613 5615 5617 5619 5620 5622 5623 5624 5625 5626 5626 5626 5627 5626 5625 5625 5624 5623 5622 5620 5619 5616 5614 5610 5607 5604 5600 5596 5592 5587 5582 5577 5571 5565 5559 5552 5545
5586 5589 5592 5594 5596 5598 5600 5601 5603 5605 5607 5609 5610 5611 5612 5613 5614 5614 5614 5613 5613 5612 5611 5610 5609 5608 5606 5604 5601 5598 5595 5592 5588 5584 5579 5574 5569 5564 5557 5552 5545 5539 5531
5572 5575 5577 5580 5583 5584 5586 5588 5590 5592 5594 5595 5596 5597 5598 5600 5600 5601 5601 5600 5600 5599 5598 5598 5597 5595 5593 5591 5588 5585 5582 5578 5575 5571 5566 5561 5556 5550 5544 5538 5532 5525 5517
5559 5561 5563 5566 5569 5571 5573 5575 5577 5579 5580 5582 5583 5584 5585 5586 5587 5587 5587 5587 5587 5586 5585 5585 5583 5582 5580 5578 5575 5572 5569 5565 5562 5558 5553 5548 5543 5537 5531 5525 5518 5511 5503
5545 5548 5550 5553 5555 5557 5559 5562 5564 5565 5567 5568 5570 5571 5572 5573 5574 5574 5574 5574 5574 5573 5572 5572 5570 5569 5567 5564 5562 5559 5555 5552 5549 5545 5540 5535 5530 5524 5518 5511 5505 5497 5490
5532 5534 5537 5539 5542 5543 5546 5548 5550 5551 5553 5554 5556 5557 5558 5559 5560 5560 5561 5561 5561 5560 5559 5558 5557 5555 5554 5551 5549 5546 5542 5539 5536 5532 5527 5522 5516 5511 5505 5498 5491 5484 5476
5518 5521 5523 5525 5528 5530 5532 5534 5535 5537 5539 5540 5542 5543 5544 5545 5546 5546 5547 5547 5547 5547 5546 5545 5544 5542 5541 5538 5536 5533 5530 5526 5523 5518 5514 5509 5504 5498 5492 5485 5478 5470 5463
5505 5507 5509 5512 5514 5516 5518 5520 5521 5523 5524 5526 5528 5529 5530 5531 5532 5533 5533 5533 5533 5533 5532 5531 5530 5529 5528 5525 5523 5520 5517 5513 5509 5505 5500 5496 5490 5485 5479 5472 5465 5457 5450